Regional Weather Roundup
Issued by NWS

Home | Current Version | Previous Version | Graphics & Text | Print | Product List | Glossary On
Versions: 1 2 3 4 5 6 7 8 9 10 11 12 13 14 15 16 17 18 19 20 21 22 23 24 25 26 27 28 29 30 31 32 33 34 35 36 37 38 39 40 41 42 43 44 45 46 47 48 49 50
000
ASUS43 KLMK 071202
RWRKY
KENTUCKY REGIONAL WEATHER ROUNDUP
NATIONAL WEATHER SERVICE LOUISVILLE KY
700 AM EST WED DEC 07 2016

NOTE "FAIR" INDICATES FEW OR NO CLOUDS BELOW 12,000 FEET
WITH NO SIGNIFICANT WEATHER AND/OR OBSTRUCTIONS TO VISIBILITY.

KYZ001>023-026-027-061>063-070>075-071300-
WESTERN AND SOUTH CENTRAL KENTUCKY

CITY           SKY/WX    TMP DP  RH WIND       PRES   REMARKS
PADUCAH        CLEAR     31  24  75 N8        30.19R WCI  23
HENDERSON      CLOUDY    32  23  69 NW5       30.20R WCI  27
OWENSBORO      PTCLDY    34  28  79 N5        30.19R WCI  30
HOPKINSVILLE   CLOUDY    34  33  99 CALM      30.16R
BOWLING GREEN  FOG       32  30  92 CALM      30.16R VSB 1/2
GLASGOW        NOT AVBL
$$

KYZ024-025-028>034-038-045-046-053-071300-
NORTH CENTRAL KENTUCKY

CITY           SKY/WX    TMP DP  RH WIND       PRES   REMARKS
LOUISVILLE/SDF PTCLDY    33  25  72 NW5       30.15R WCI  29
LOUISVILLE/LOU CLOUDY    35  27  72 CALM      30.15R
FORT KNOX      MOCLDY    29  28  95 W2        30.13R
$$

KYZ035>037-039>044-047>052-055>060-089>105-071300-
NORTHEAST KENTUCKY

CITY           SKY/WX    TMP DP  RH WIND       PRES   REMARKS
LEXINGTON      PTCLDY    32  28  85 W3        30.14R
COVINGTON      MOCLDY    31  22  69 W5        30.12R WCI  26
FRANKFORT      CLOUDY    33  27  78 CALM      30.13R
$$

KYZ054-064>069-076>088-106>120-071300-
SOUTHEAST KENTUCKY

CITY           SKY/WX    TMP DP  RH WIND       PRES   REMARKS
JACKSON        CLEAR     34  29  82 VRB5      30.10R WCI  30
LONDON         PTCLDY    36  32  85 N7        30.10R WCI  30
SOMERSET       NOT AVBL
MIDDLESBORO    CLOUDY    38  36  94 CALM      30.10R
MONTICELLO     CLOUDY    37  33  85 N13       30.14R WCI  29
$$




USA.gov is the U.S. government's official web portal to all federal, state and local government web resources and services.